| time (UTC) | temp F | wind direction | speed MPH | gust MPH | rain 1hr in | rain 24hr in | rain mn in | humidity % | barometer mb |
| 20260504171550 | 69 | 271 | 5.0 | 19.0 | 0.00 | 0.00 | 0.00 | 36 | 1010.6 |
| 20260504081544 | 53 | 321 | 5.0 | 12.0 | 0.00 | 0.00 | 0.00 | 48 | 1012.5 |
| 20260504044545 | 51 | 318 | 2.0 | 12.0 | 0.00 | 0.00 | 0.00 | 54 | 1012.0 |
| 20260504043053 | 49 | 284 | 1.0 | 3.0 | 0.00 | 0.00 | 0.00 | 59 | 1011.8 |
| 20260504041546 | 48 | 0 | 0.0 | 0.0 | 0.00 | 0.00 | 0.00 | 63 | 1011.6 |
| 20260504040105 | 48 | 0 | 0.0 | 0.0 | 0.00 | 0.00 | 0.00 | 59 | 1011.5 |
| 20260504034609 | 48 | 0 | 0.0 | 0.0 | 0.00 | 0.00 | 0.00 | 60 | 1011.5 |
| 20260504033043 | 48 | 0 | 0.0 | 2.0 | 0.00 | 0.00 | 0.00 | 59 | 1011.6 |
| 20260504031541 | 49 | 0 | 0.0 | 0.0 | 0.00 | 0.00 | 0.00 | 57 | 1011.5 |
| 20260504030104 | 50 | 0 | 0.0 | 0.0 | 0.00 | 0.00 | 0.00 | 53 | 1011.6 |
| 20260504024558 | 51 | 0 | 0.0 | 0.0 | 0.00 | 0.00 | 0.00 | 50 | 1011.5 |
| 20260504023043 | 52 | 0 | 0.0 | 0.0 | 0.00 | 0.00 | 0.00 | 48 | 1011.6 |
| 20260504021553 | 52 | 0 | 0.0 | 0.0 | 0.00 | 0.00 | 0.00 | 47 | 1011.8 |
| 20260504020107 | 53 | 0 | 0.0 | 0.0 | 0.00 | 0.00 | 0.00 | 44 | 1011.8 |
| 20260504014555 | 53 | 0 | 0.0 | 2.0 | 0.00 | 0.00 | 0.00 | 43 | 1011.5 |
| 20260504013051 | 54 | 352 | 1.0 | 2.0 | 0.00 | 0.00 | 0.00 | 42 | 1011.5 |
| 20260504011550 | 54 | 352 | 1.0 | 3.0 | 0.00 | 0.00 | 0.00 | 40 | 1011.4 |
| 20260504010049 | 55 | 341 | 1.0 | 4.0 | 0.00 | 0.00 | 0.00 | 39 | 1011.1 |
| 20260504004556 | 56 | 302 | 0.0 | 2.0 | 0.00 | 0.00 | 0.00 | 37 | 1011.0 |
| 20260504003042 | 56 | 329 | 1.0 | 4.0 | 0.00 | 0.00 | 0.00 | 36 | 1011.0 |
| 20260504001600 | 57 | 317 | 1.0 | 5.0 | 0.00 | 0.00 | 0.00 | 35 | 1010.6 |
| 20260504000055 | 57 | 326 | 2.0 | 6.0 | 0.00 | 0.00 | 0.00 | 34 | 1010.5 |
| 20260503234548 | 58 | 319 | 2.0 | 9.0 | 0.00 | 0.00 | 0.00 | 33 | 1010.2 |
| 20260503233043 | 58 | 335 | 3.0 | 12.0 | 0.00 | 0.00 | 0.00 | 32 | 1009.9 |
| 20260503231553 | 59 | 314 | 3.0 | 10.0 | 0.00 | 0.00 | 0.00 | 31 | 1009.9 |
| 20260503230051 | 59 | 18 | 5.0 | 13.0 | 0.00 | 0.00 | 0.00 | 30 | 1009.7 |
| 20260503224548 | 61 | 338 | 4.0 | 13.0 | 0.00 | 0.00 | 0.00 | 29 | 1009.4 |
| 20260503223048 | 61 | 309 | 7.0 | 17.0 | 0.00 | 0.00 | 0.00 | 28 | 1009.5 |
| 20260503221547 | 61 | 303 | 4.0 | 14.0 | 0.00 | 0.00 | 0.00 | 29 | 1009.5 |
| 20260503220044 | 61 | 352 | 7.0 | 20.0 | 0.00 | 0.00 | 0.00 | 28 | 1009.6 |
| 20260503214540 | 61 | 42 | 7.0 | 19.0 | 0.00 | 0.00 | 0.00 | 28 | 1009.6 |
| 20260503213048 | 60 | 296 | 9.0 | 22.0 | 0.00 | 0.00 | 0.00 | 29 | 1009.5 |
| 20260503211549 | 61 | 27 | 6.0 | 19.0 | 0.00 | 0.00 | 0.00 | 29 | 1009.4 |
| 20260503210044 | 60 | 29 | 8.0 | 23.0 | 0.00 | 0.00 | 0.00 | 30 | 1009.4 |
| 20260503204557 | 59 | 11 | 9.0 | 20.0 | 0.00 | 0.00 | 0.00 | 30 | 1009.4 |
| 20260503203050 | 59 | 340 | 9.0 | 24.0 | 0.00 | 0.00 | 0.00 | 31 | 1009.5 |
| 20260503201545 | 60 | 281 | 9.0 | 21.0 | 0.00 | 0.00 | 0.00 | 31 | 1009.5 |
| 20260503200045 | 59 | 5 | 6.0 | 19.0 | 0.00 | 0.00 | 0.00 | 32 | 1009.6 |
| 20260503194550 | 59 | 288 | 9.0 | 23.0 | 0.00 | 0.00 | 0.00 | 33 | 1009.7 |
| 20260503193108 | 58 | 352 | 6.0 | 19.0 | 0.00 | 0.00 | 0.00 | 34 | 1009.9 |
| 20260503191551 | 58 | 360 | 7.0 | 20.0 | 0.00 | 0.00 | 0.00 | 36 | 1010.0 |
| 20260503190059 | 58 | 51 | 6.0 | 20.0 | 0.00 | 0.00 | 0.00 | 38 | 1010.1 |
| 20260503184547 | 57 | 351 | 5.0 | 20.0 | 0.00 | 0.00 | 0.00 | 36 | 1010.2 |
| 20260503183045 | 57 | 330 | 8.0 | 20.0 | 0.00 | 0.00 | 0.00 | 37 | 1010.3 |
| 20260503181548 | 56 | 18 | 9.0 | 24.0 | 0.00 | 0.00 | 0.00 | 39 | 1010.2 |
| 20260503180055 | 56 | 352 | 7.0 | 20.0 | 0.00 | 0.00 | 0.00 | 40 | 1010.4 |
| 20260503174548 | 56 | 292 | 9.0 | 20.0 | 0.00 | 0.00 | 0.00 | 38 | 1010.4 |
| 20260503173104 | 56 | 331 | 7.0 | 26.0 | 0.00 | 0.00 | 0.00 | 38 | 1010.3 |